| time (UTC) | temp F | wind direction | speed MPH | gust MPH | rain 1hr in | rain 24hr in | rain mn in | humidity % | barometer mb |
| 20260509151525 | 43 | 162 | 0.0 | 0.0 | 0.05 | 0.06 | 0.06 | 91 | 1013.3 |
| 20260509150036 | 43 | 177 | 0.0 | 0.0 | 0.04 | 0.04 | 0.04 | 91 | 1013.3 |
| 20260509144523 | 43 | 204 | 0.0 | 0.0 | 0.03 | 0.03 | 0.03 | 90 | 1013.2 |
| 20260509143024 | 43 | 157 | 0.0 | 7.0 | 0.02 | 0.02 | 0.02 | 88 | 1013.1 |
| 20260509141523 | 44 | 187 | 0.0 | 4.0 | 0.01 | 0.01 | 0.01 | 87 | 1013.2 |
| 20260509140022 | 44 | 163 | 0.0 | 5.0 | 0.00 | 0.00 | 0.00 | 85 | 1013.0 |
| 20260509134518 | 43 | 184 | 0.0 | 0.0 | 0.00 | 0.00 | 0.00 | 82 | 1013.0 |
| 20260509133018 | 43 | 195 | 0.0 | 0.0 | 0.00 | 0.00 | 0.00 | 79 | 1013.1 |
| 20260509131522 | 43 | 195 | 0.0 | 0.0 | 0.00 | 0.00 | 0.00 | 81 | 1013.1 |
| 20260509130012 | 42 | 195 | 0.0 | 0.0 | 0.00 | 0.00 | 0.00 | 85 | 1013.0 |
| 20260509124510 | 40 | 195 | 0.0 | 0.0 | 0.00 | 0.00 | 0.00 | 89 | 1013.1 |
| 20260509123006 | 39 | 195 | 0.0 | 0.0 | 0.00 | 0.00 | 0.00 | 93 | 1013.1 |
| 20260509121502 | 37 | 195 | 0.0 | 0.0 | 0.00 | 0.00 | 0.00 | 94 | 1013.3 |
| 20260509114559 | 35 | 195 | 0.0 | 0.0 | 0.00 | 0.00 | 0.00 | 94 | 1013.5 |
| 20260509113058 | 34 | 195 | 0.0 | 0.0 | 0.00 | 0.00 | 0.00 | 94 | 1013.3 |
| 20260509111553 | 33 | 36 | 0.0 | 0.0 | 0.00 | 0.00 | 0.00 | 93 | 1013.4 |
| 20260509110050 | 33 | 302 | 0.0 | 0.0 | 0.00 | 0.00 | 0.00 | 93 | 1013.7 |
| 20260509104548 | 32 | 302 | 0.0 | 0.0 | 0.00 | 0.00 | 0.00 | 93 | 1013.5 |
| 20260509103050 | 32 | 302 | 0.0 | 0.0 | 0.00 | 0.00 | 0.00 | 93 | 1013.3 |
| 20260509101543 | 31 | 218 | 0.0 | 0.0 | 0.00 | 0.00 | 0.00 | 93 | 1013.5 |
| 20260509100049 | 31 | 218 | 0.0 | 0.0 | 0.00 | 0.00 | 0.00 | 93 | 1013.6 |
| 20260509094538 | 31 | 217 | 0.0 | 0.0 | 0.00 | 0.00 | 0.00 | 93 | 1013.5 |
| 20260509093042 | 30 | 218 | 0.0 | 0.0 | 0.00 | 0.00 | 0.00 | 93 | 1013.3 |
| 20260509091538 | 30 | 218 | 0.0 | 0.0 | 0.00 | 0.00 | 0.00 | 93 | 1013.2 |
| 20260509090042 | 30 | 217 | 0.0 | 0.0 | 0.00 | 0.00 | 0.00 | 92 | 1013.2 |
| 20260509084535 | 30 | 218 | 0.0 | 0.0 | 0.00 | 0.00 | 0.00 | 92 | 1013.2 |
| 20260509083035 | 30 | 218 | 0.0 | 0.0 | 0.00 | 0.00 | 0.00 | 92 | 1012.9 |
| 20260509081533 | 30 | 218 | 0.0 | 0.0 | 0.00 | 0.00 | 0.00 | 92 | 1012.9 |
| 20260509080031 | 30 | 218 | 0.0 | 0.0 | 0.00 | 0.00 | 0.00 | 91 | 1012.9 |
| 20260509074531 | 30 | 218 | 0.0 | 0.0 | 0.00 | 0.00 | 0.00 | 91 | 1012.7 |
| 20260509073029 | 30 | 218 | 0.0 | 0.0 | 0.00 | 0.00 | 0.00 | 91 | 1012.8 |
| 20260509071527 | 31 | 218 | 0.0 | 0.0 | 0.00 | 0.00 | 0.00 | 90 | 1012.7 |
| 20260509070027 | 31 | 218 | 0.0 | 0.0 | 0.00 | 0.00 | 0.00 | 90 | 1012.7 |
| 20260509064529 | 31 | 218 | 0.0 | 0.0 | 0.00 | 0.00 | 0.00 | 90 | 1012.9 |
| 20260509063027 | 32 | 218 | 0.0 | 0.0 | 0.00 | 0.00 | 0.00 | 90 | 1013.2 |
| 20260509061527 | 32 | 218 | 0.0 | 0.0 | 0.00 | 0.00 | 0.00 | 89 | 1013.3 |
| 20260509060030 | 32 | 218 | 0.0 | 0.0 | 0.00 | 0.00 | 0.00 | 88 | 1013.4 |
| 20260509054518 | 33 | 217 | 0.0 | 0.0 | 0.00 | 0.00 | 0.00 | 88 | 1013.5 |
| 20260509053016 | 33 | 218 | 0.0 | 0.0 | 0.00 | 0.00 | 0.00 | 87 | 1013.4 |
| 20260509051513 | 34 | 217 | 0.0 | 0.0 | 0.00 | 0.00 | 0.00 | 87 | 1013.3 |
| 20260509050033 | 34 | 217 | 0.0 | 0.0 | 0.00 | 0.00 | 0.00 | 87 | 1013.1 |
| 20260509044510 | 34 | 217 | 0.0 | 0.0 | 0.00 | 0.00 | 0.00 | 86 | 1013.0 |
| 20260509043009 | 35 | 217 | 0.0 | 0.0 | 0.00 | 0.00 | 0.00 | 85 | 1013.0 |
| 20260509041505 | 35 | 217 | 0.0 | 0.0 | 0.00 | 0.00 | 0.00 | 85 | 1012.8 |
| 20260509040003 | 36 | 217 | 0.0 | 0.0 | 0.00 | 0.00 | 0.00 | 84 | 1012.6 |
| 20260509034602 | 36 | 217 | 0.0 | 0.0 | 0.00 | 0.00 | 0.00 | 84 | 1012.7 |
| 20260509033004 | 36 | 217 | 0.0 | 0.0 | 0.00 | 0.00 | 0.00 | 83 | 1012.8 |
| 20260509031623 | 37 | 217 | 0.0 | 0.0 | 0.00 | 0.00 | 0.00 | 82 | 1012.7 |
| 20260509024557 | 38 | 217 | 0.0 | 0.0 | 0.00 | 0.00 | 0.00 | 80 | 1012.4 |
| 20260509023101 | 38 | 217 | 0.0 | 0.0 | 0.00 | 0.00 | 0.00 | 79 | 1012.2 |
| 20260509021555 | 39 | 217 | 0.0 | 0.0 | 0.00 | 0.00 | 0.00 | 77 | 1012.1 |
| 20260509020057 | 39 | 217 | 0.0 | 0.0 | 0.00 | 0.00 | 0.00 | 76 | 1012.0 |
| 20260509014555 | 40 | 217 | 0.0 | 0.0 | 0.00 | 0.00 | 0.00 | 76 | 1012.0 |
| 20260509013055 | 41 | 217 | 0.0 | 0.0 | 0.00 | 0.00 | 0.00 | 76 | 1011.7 |
| 20260509011550 | 41 | 217 | 0.0 | 0.0 | 0.00 | 0.00 | 0.00 | 73 | 1011.5 |
| 20260509010047 | 42 | 217 | 0.0 | 0.0 | 0.00 | 0.00 | 0.00 | 72 | 1011.2 |
| 20260509004550 | 43 | 217 | 0.0 | 0.0 | 0.00 | 0.00 | 0.00 | 70 | 1011.0 |
| 20260509003044 | 43 | 217 | 0.0 | 0.0 | 0.00 | 0.00 | 0.00 | 70 | 1010.8 |
| 20260509001543 | 44 | 217 | 0.0 | 0.0 | 0.00 | 0.00 | 0.00 | 67 | 1010.7 |
| 20260509000053 | 45 | 217 | 0.0 | 0.0 | 0.00 | 0.00 | 0.00 | 65 | 1010.5 |
| 20260508234540 | 45 | 218 | 0.0 | 0.0 | 0.00 | 0.00 | 0.00 | 65 | 1010.3 |
| 20260508233039 | 45 | 205 | 1.0 | 5.0 | 0.00 | 0.00 | 0.00 | 64 | 1010.3 |
| 20260508231539 | 46 | 249 | 0.0 | 10.0 | 0.00 | 0.00 | 0.00 | 64 | 1010.1 |
| 20260508230037 | 46 | 184 | 2.0 | 9.0 | 0.00 | 0.00 | 0.00 | 62 | 1010.1 |
| 20260508224535 | 46 | 234 | 1.0 | 11.0 | 0.00 | 0.00 | 0.00 | 62 | 1009.9 |
| 20260508223037 | 46 | 232 | 2.0 | 8.0 | 0.00 | 0.00 | 0.00 | 62 | 1010.0 |
| 20260508221537 | 46 | 184 | 0.0 | 11.0 | 0.00 | 0.00 | 0.00 | 63 | 1009.9 |
| 20260508220038 | 46 | 196 | 1.0 | 9.0 | 0.00 | 0.00 | 0.00 | 64 | 1009.8 |
| 20260508214534 | 46 | 269 | 6.0 | 15.0 | 0.00 | 0.00 | 0.00 | 64 | 1009.8 |
| 20260508213044 | 47 | 254 | 6.0 | 14.0 | 0.00 | 0.00 | 0.00 | 63 | 1009.5 |
| 20260508211534 | 47 | 229 | 2.0 | 9.0 | 0.00 | 0.00 | 0.00 | 65 | 1009.3 |
| 20260508210034 | 48 | 174 | 5.0 | 13.0 | 0.00 | 0.00 | 0.00 | 62 | 1009.3 |
| 20260508204532 | 48 | 208 | 8.0 | 19.0 | 0.00 | 0.00 | 0.00 | 57 | 1009.3 |
| 20260508203034 | 49 | 237 | 5.0 | 10.0 | 0.00 | 0.00 | 0.00 | 52 | 1009.1 |
| 20260508201529 | 49 | 265 | 4.0 | 13.0 | 0.00 | 0.00 | 0.00 | 50 | 1008.9 |
| 20260508200039 | 50 | 261 | 2.0 | 8.0 | 0.00 | 0.00 | 0.00 | 52 | 1008.9 |
| 20260508194529 | 51 | 324 | 6.0 | 14.0 | 0.00 | 0.00 | 0.00 | 45 | 1008.8 |
| 20260508193028 | 51 | 195 | 6.0 | 12.0 | 0.00 | 0.00 | 0.00 | 45 | 1008.5 |
| 20260508191531 | 50 | 311 | 6.0 | 14.0 | 0.00 | 0.00 | 0.00 | 45 | 1008.7 |
| 20260508190035 | 51 | 261 | 4.0 | 14.0 | 0.00 | 0.00 | 0.00 | 42 | 1008.7 |
| 20260508184526 | 52 | 202 | 8.0 | 17.0 | 0.00 | 0.00 | 0.00 | 44 | 1008.7 |
| 20260508183022 | 51 | 217 | 3.0 | 12.0 | 0.00 | 0.00 | 0.00 | 46 | 1008.9 |
| 20260508181541 | 49 | 240 | 2.0 | 12.0 | 0.00 | 0.00 | 0.00 | 49 | 1009.0 |
| 20260508180021 | 49 | 206 | 4.0 | 13.0 | 0.00 | 0.00 | 0.00 | 48 | 1009.0 |
| 20260508174523 | 48 | 236 | 6.0 | 14.0 | 0.00 | 0.00 | 0.00 | 45 | 1009.1 |
| 20260508173021 | 49 | 203 | 8.0 | 15.0 | 0.00 | 0.00 | 0.00 | 44 | 1009.1 |
| 20260508171520 | 50 | 296 | 2.0 | 14.0 | 0.00 | 0.00 | 0.00 | 46 | 1009.1 |
| 20260508170022 | 50 | 260 | 1.0 | 10.0 | 0.00 | 0.00 | 0.00 | 48 | 1009.0 |
| 20260508164533 | 49 | 223 | 4.0 | 7.0 | 0.00 | 0.00 | 0.00 | 49 | 1009.3 |
| 20260508163017 | 48 | 304 | 3.0 | 15.0 | 0.00 | 0.00 | 0.00 | 49 | 1009.5 |
| 20260508161517 | 48 | 209 | 3.0 | 15.0 | 0.00 | 0.00 | 0.00 | 48 | 1009.4 |
| 20260508160032 | 49 | 195 | 5.0 | 13.0 | 0.00 | 0.00 | 0.00 | 45 | 1009.4 |
| 20260508154517 | 49 | 272 | 6.0 | 13.0 | 0.00 | 0.00 | 0.00 | 45 | 1009.3 |
| 20260508153017 | 50 | 277 | 8.0 | 13.0 | 0.00 | 0.00 | 0.00 | 43 | 1009.3 |